Powrót do katalogu

COSMOS 886 DEB

AktywnyLEO
NORAD 9816·DEBRIS·🇷🇺 Russia

Wystrzelony Dec 27, 1976 z Baikonur Cosmodrome

Loading…

Następne Przeloty (najbliższe 24 godziny)

TLE

ŚwieżeSource: Space-Track

Epoka: Sep 14, 2026, 21:41 UTC

1 09816U 76126AC  26257.90396916  .00001842  00000-0  35248-3 0  9991
2 09816  65.7910  69.9994 0573717 342.9769  15.2730 13.95193433419755

Śledź COSMOS 886 DEB w czasie rzeczywistym z AllMySat

Download on the App Store